This is the latest recevied weather packets stored in our database for station/object KD0KHX-10. If no packets are shown the sender has not sent any weather packets the latest 1 day(s).
| Time | Temp. | Humidity | Pressure | Rain* | Wind** | Luminosity | Snow |
|---|---|---|---|---|---|---|---|
| 1778117703 | 7.78° C | 77% | 1012.8 hPa | 0 mm | - | - | - |
| 1778117238 | 7.78° C | 77% | 1012.7 hPa | 0 mm | - | - | - |
| 1778116773 | 7.78° C | 76% | 1012.8 hPa | 0 mm | - | - | - |
| 1778116173 | 7.78° C | 77% | 1012.8 hPa | 0 mm | - | - | - |
| 1778114838 | 7.78° C | 76% | 1012.5 hPa | 0 mm | - | - | - |
| 1778114072 | 8.33° C | 77% | 1012.5 hPa | 0 mm | - | - | - |
| 1778113638 | 8.33° C | 78% | 1012.6 hPa | 0 mm | - | - | - |
| 1778112872 | 7.78° C | 78% | 1012.8 hPa | 0 mm | - | - | - |
| 1778109874 | 8.33° C | 76% | 1012.7 hPa | 0 mm | - | - | - |
| 1778103738 | 9.44° C | 71% | 1012.9 hPa | 0 mm | - | - | - |
| 1778102972 | 9.44° C | 72% | 1013.1 hPa | 0 mm | - | - | - |
| 1778102237 | 8.89° C | 74% | 1013.2 hPa | 0 mm | - | - | - |
| 1778102073 | 8.89° C | 74% | 1013.3 hPa | 0 mm | - | - | - |
| 1778100273 | 8.89° C | 74% | 1013.5 hPa | 0 mm | - | - | - |
| 1778093838 | 6.67° C | 81% | 1014.1 hPa | 0 mm | - | - | - |
| 1778090373 | 5.56° C | 78% | 1014.4 hPa | 0 mm | - | - | - |
| 1778084538 | 5.56° C | 52% | 1014.2 hPa | 0 mm | - | - | - |
| 1778083938 | 5° C | 51% | 1013.9 hPa | 0 mm | - | - | - |
| 1778083172 | 5° C | 50% | 1013.9 hPa | 0 mm | - | - | - |
| 1778082572 | 5° C | 48% | 1013.7 hPa | 0 mm | - | - | - |
| 1778075537 | 2.78° C | 49% | 1013.7 hPa | 0.76 mm | - | - | - |
| 1778075238 | 2.22° C | 49% | 1013.6 hPa | 0.76 mm | - | - | - |
| 1778074038 | 2.22° C | 49% | 1013.6 hPa | 0.76 mm | - | - | - |
| 1778073872 | 2.22° C | 49% | 1013.6 hPa | 0.76 mm | - | - | - |
| 1778073137 | 2.22° C | 49% | 1013.4 hPa | 0.76 mm | - | - | - |
* Rain latest hour (hover to see other rain measurements)
** Current wind speed in m/s (hover to see current wind gust speed)